Weather in Veliky Obzyr

Ukraine / Volyn Oblast     51°27′11″N   25°12′47″E
В апреле 2022 года жителям России запретили посещать сайт meteo.paraplan.net по решению Генеральной прокуратуры. Аудитория сайта уменьшилась в 10 раз. Владельцы сайта не видят смысла в поддержке погодного сервера в таких условиях. Сайт будет закрыт в октябре.
temp.,
°C
wind,
m/s
gust,
m/s
humid.,
%
clouds,
%
prec.,
mm/h
press.,
hPa
HPBL,
m
29 september, thu
thu2900:00+8s37835 0.0 1003137
03:00+10ssw5147898 0.0 1003527
06:00+9ssw31178100 0.0 1003293
09:00+10ssw3889100 0.1 1004290
12:00+10ssw2797100 1.4 1005342
15:00+12sw1391100 1.9 1005322
18:00+10nnw2499100 3.9 1006174
21:00+10nnw1199100 5.4 100829
30 september, fri
fri3000:00+10nnw2397100 0.0 100987
03:00+9n129272 0.0 101076
06:00+7nne229592 0.0 101225
09:00+9ene128742 0.0 1013110
12:00+13ese1270100 0.0 1014570
15:00+15e236795 0.0 1013745
18:00+12ne2592100 1.3 1013141
21:00+13ese169799 6.6 1012364
1 october, sat
sat100:00+10nnw4697100 0.1 1014375
03:00+10n139799 0.1 1015173
06:00+10e1297100 0.0 101477
09:00+11s2595100 0.1 1014229
12:00+14wsw378998 0.1 1013565
15:00+15wsw3683100 0.2 1013784
18:00+14sw2385100 0.0 1012154
21:00+10sw119618 0.0 101211
2 october, sun
sun200:00+11ne1195100 0.1 101136
03:00+11nne1195100 0.1 101133
06:00+11nne119599 0.2 101128
09:00+11wsw2595100 0.3 1012292
12:00+13wnw588098 0.3 1013865
15:00+13nw587898 0.3 1013930
18:00+12nw498142 0.0 1014823
21:00+11wnw41087100 0.2 1015621
3 october, mon
mon300:00+10wnw41087100 0.1 1014509
03:00+10wnw41084100 0.1 1014525
06:00+9wnw31092100 0.1 1010512
09:00+9wnw41093100 0.3 1009498
12:00+10wnw51088100 0.1 1009854
15:00+10wnw51086100 0.4 10081187
18:00+9wnw61186100 0.1 1007880
21:00+9wnw61288100 0.2 1006799